Home   Weather   Pasco   Past weeks

Flag for USA Past Weather in Pasco, Washington, USA — Yesterday and Last 2 Weeks

Now
73 °F

Sunny.


Feels Like: 77 °F
Forecast: 54 / 96 °F
Wind: 7 mph from Northwest

Location: Tri-Cities Airport

Current Time: Jul 25, 2017 at 11:50:23 am

Latest Report: Jul 25, 2017 at 8:53 am


Visibility: 10 mi

Pressure: 29.96 "Hg

Humidity: 50%

Dew Point: 53 °F

Location of PascoLocation

Past Weather in Pasco — Graph

°F

Pasco Temperature Yesterday

Maximum temperature yesterday: 92 °F (at 4:53 pm)
Minimum temperature yesterday: 62 °F (at 4:53 am)
Average temperature yesterday: 77 °F

High & Low Weather Summary for the Past Weeks

 TemperatureHumidityPressure
High101 °F (Jul 23, 5:53 pm)93% (Jul 22, 4:53 am)30.15 "Hg (Jul 22, 4:53 am)
Low49 °F (Jul 17, 5:53 am)12% (Jul 18, 5:53 pm)29.70 "Hg (Jul 23, 6:53 pm)
Average76 °F42%29.94 "Hg
* Reported Jul 10 8:53 am — Jul 25 8:53 am, Pasco. Weather by CustomWeather, © 2017

Note: Actual official high and low records may vary slightly from our data, if they occured in-between our weather recording intervals... More about our weather records

Advertising

Pasco Weather History for the Previous 24 Hours

Scroll right to see more
 ConditionsComfort  
Time TempWeatherWind HumidityBarometerVisibility
8:53 am
Tue, Jul 25
73 °FSunny.7 mph50%29.96 "Hg10 mi
7:53 am68 °FSunny.7 mph53%29.95 "Hg10 mi
6:53 am63 °FSunny.3 mph68%29.95 "Hg10 mi
5:53 am56 °FSunny.No wind84%29.93 "Hg10 mi
4:53 am57 °FClear.No wind83%29.90 "Hg10 mi
3:53 am56 °FClear.7 mph90%29.89 "Hg10 mi
2:53 am58 °FClear.6 mph81%29.88 "Hg10 mi
1:53 am59 °FClear.5 mph87%29.88 "Hg10 mi
12:53 am62 °FClear.3 mph80%29.87 "Hg10 mi
11:53 pm
Mon, Jul 24
62 °FClear.6 mph83%29.85 "Hg10 mi
10:53 pm68 °FClear.6 mph68%29.84 "Hg10 mi
9:53 pm69 °FClear.6 mph63%29.83 "Hg10 mi
8:53 pm77 °FClear.3 mph40%29.82 "Hg10 mi
7:53 pm85 °FSunny.6 mph30%29.81 "Hg10 mi
6:53 pm89 °FSunny.8 mph21%29.82 "Hg10 mi
5:53 pm91 °FSunny.12 mph16%29.83 "Hg10 mi
4:53 pm92 °FSunny.13 mph16%29.84 "Hg10 mi
3:53 pm91 °FSunny.10 mph16%29.86 "Hg10 mi
2:53 pm89 °FSunny.8 mph16%29.88 "Hg10 mi
1:53 pm88 °FSunny.10 mph19%29.90 "Hg10 mi
12:53 pm87 °FSunny.12 mph23%29.92 "Hg10 mi
11:53 am83 °FSunny.12 mph26%29.93 "Hg10 mi
Weather by CustomWeather, © 2017

See weather overviewHow to use our weather pages